GAOFEN 13 (46610 NORAD) Tracking and Keplerian Element Data

This shows tracking and keplerian element data for the satellite.

Feedback or suggestion? Click here.




ElementValue
Catalog46610
NameGAOFEN 13
Epoch Orbit62
Epoch Day336.90332128
Epoch Year2020
RAAN281.7322
Inclination1.8851
Eccentricity0.0002712
Argument of Perigee267.6541
Mean Anonmoly324.8788
Mean Motion1.00272282
Decay Rate-3.41E-06
L11 46610U 20071A 20336.90332128 -.00000341 00000-0 00000-0 0 9998
L22 46610 1.8851 281.7322 0002712 267.6541 324.8788 1.00272282 622

Live tracking and technical data element details for GAOFEN 13 (NORAD 46610). GAOFEN 13 can be tracked NOW for your location showing map with azimuth and elevation plus other details from your city location.

Track the satellite on the map from your city or location and see movement details for azimuth, elevation, latitude, longitude, range, height, and movement on the map or in text.







IsCatalogInMostPopularTable: catalog: 46610, numindb: 16
Update: records affected: 1



GetName: 46610 GAOFEN 13

Hit Count: updated at: Wed, 02 Dec 2020 18:09:01 GMT